Simultaneous Nadir Overpasses (SNOs) Predictions

Prediction of SNOs between GOES-16 and TERRA Satellite Orbit:

Table of predicted SNOs for the next 14.0 days since TLE Epoch: 8/13/2022
Index Date Time (GOES-16) GOES-16 Lat,Lon TERRA Lat,Lon Distance(km) Time Diff (sec)
1 08/13/2022 15:07:16 -0.03, -75.20 -0.65, -72.38 320.44 80
2 08/14/2022 03:28:39 0.03, -75.19 -0.50, -77.57 271.31 80
3 08/16/2022 03:13:45 0.03, -75.20 0.13, -74.62 65.95 80
4 08/18/2022 03:01:31 0.03, -75.22 0.76, -71.67 403.77 80
5 08/18/2022 15:22:46 -0.02, -75.24 0.31, -76.83 181.01 80
6 08/20/2022 15:13:12 -0.02, -75.27 -0.33, -73.88 157.47 80
7 08/21/2022 03:34:35 0.01, -75.26 -0.81, -79.07 433.47 80
8 08/22/2022 14:58:17 -0.00, -75.29 -0.92, -70.92 496.54 80
9 08/23/2022 03:22:21 -0.00, -75.29 -0.16, -76.13 94.35 80
10 08/25/2022 03:07:26 -0.00, -75.33 0.44, -73.17 245.11 80
11 08/25/2022 15:28:41 0.00, -75.34 0.63, -78.33 339.42 80
